User: anonymous   Login
Location: SE Lincoln, NE
(40.7805°N, 96.6275°W)
Time: 23:49:30
(UTC-05:00)
Language:

Cosmos 1271 Rocket - Orbit

View from above orbital plane
View from above orbital plane
View from above satellite
View from above satellite

Ground track
Ground track

The orbit data is extracted from the following two-line orbital elements,

1 12465U 81046B   21210.43655230  .00000967  00000-0  49751-4 0  9993
2 12465  81.2420  96.0771 0033341 336.4706  23.4994 15.15015854181893
Epoch (UTC): 29 July 2021 10:28:38
Eccentricity: 0.0033341
inclination: 81.2420°
perigee height: 498 km
apogee height: 544 km
right ascension of ascending node: 96.0771°
argument of perigee: 336.4706°
revolutions per day: 15.15015854
mean anomaly at epoch: 23.4994°
orbit number at epoch: 18189

The dashed part of the orbit path shows where the satellite is in the earth's shadow,  

DLR